ETD147 OMAA-ZBAA

Flight info

Callsign ETD147
Flight time N/A
Altitude 360
Route KANIP N318 GEVED N881 AMBOS M700 PARAR N571 SUGID DCT AAU G450 NNP/N0489F370 G450 JJS A791 CEA B465 CTG A599 LINSO/K0902S1130 A599 SGM A581 EPGAL/K0891S1190 A581 IDPOG W56 LEBUN/K0895S1160 W56 DUGEB
Aircraft A346/H-SDE2E3GHIJ3J4J5LM1ORWXY/LB1D1

Departure

Time N/A
Airport Zayed International Airport (OMAA)

Arrival

Time 2026-05-07 10:16
Airport Beijing Capital International Airport (ZBAA)
Time Latitude Longitude Altitude Speed Heading
2026-05-07 09:27 35.52597 114.66707 35239 ft 479 kts 354°
2026-05-07 09:27 35.55926 114.67030 35239 ft 479 kts 354°
2026-05-07 09:28 35.65909 114.68005 35250 ft 480 kts 353°
2026-05-07 09:28 35.72577 114.68651 35247 ft 481 kts 353°
2026-05-07 09:29 35.79246 114.69302 35274 ft 481 kts 353°
2026-05-07 09:29 35.85904 114.69957 35250 ft 481 kts 353°
2026-05-07 09:30 35.92582 114.70607 35243 ft 481 kts 353°
2026-05-07 09:30 35.99257 114.71259 35244 ft 481 kts 353°
2026-05-07 09:31 36.05928 114.71918 35259 ft 479 kts 353°
2026-05-07 09:31 36.12571 114.72569 35245 ft 479 kts 353°
2026-05-07 09:32 36.19210 114.73215 35248 ft 479 kts 353°
2026-05-07 09:32 36.25855 114.73865 35248 ft 479 kts 353°
2026-05-07 09:33 36.32471 114.74840 35244 ft 489 kts 359°
2026-05-07 09:33 36.39164 114.76884 35245 ft 500 kts
2026-05-07 09:34 36.45767 114.79872 35280 ft 511 kts 12°
2026-05-07 09:34 36.52293 114.83598 35256 ft 515 kts 14°
2026-05-07 09:35 36.58783 114.87402 35252 ft 515 kts 14°
2026-05-07 09:35 36.65272 114.91193 35274 ft 515 kts 13°
2026-05-07 09:36 36.71747 114.94974 35253 ft 513 kts 13°
2026-05-07 09:36 36.78217 114.98741 35249 ft 513 kts 13°
2026-05-07 09:37 36.84690 115.02520 35285 ft 513 kts 12°
2026-05-07 09:37 36.91129 115.06296 35256 ft 510 kts 12°
2026-05-07 09:38 36.97553 115.10054 35245 ft 510 kts 12°
2026-05-07 09:38 37.03976 115.13821 35295 ft 510 kts 12°
2026-05-07 09:39 37.10378 115.17600 35251 ft 507 kts 11°
2026-05-07 09:39 37.16765 115.21356 35246 ft 507 kts 11°
2026-05-07 09:40 37.23115 115.25098 35281 ft 507 kts 11°
2026-05-07 09:40 37.29484 115.28870 35252 ft 506 kts 11°
2026-05-07 09:41 37.35852 115.32638 34996 ft 506 kts 11°
2026-05-07 09:41 37.39033 115.34528 34779 ft 505 kts 11°
2026-05-07 09:41 37.42207 115.36417 34586 ft 503 kts 11°
2026-05-07 09:41 37.45362 115.38299 34353 ft 500 kts 10°
2026-05-07 09:42 37.48501 115.40171 34113 ft 498 kts
2026-05-07 09:42 37.51639 115.42036 33846 ft 496 kts
2026-05-07 09:42 37.54763 115.43890 33585 ft 496 kts 10°
2026-05-07 09:42 37.57888 115.45747 33339 ft 496 kts 10°
2026-05-07 09:43 37.61006 115.47604 33134 ft 497 kts 10°
2026-05-07 09:43 37.64136 115.49473 32874 ft 494 kts 11°
2026-05-07 09:43 37.67231 115.51329 32622 ft 492 kts 11°
2026-05-07 09:43 37.70325 115.53170 32365 ft 489 kts
2026-05-07 09:44 37.73445 115.54783 32113 ft 480 kts
2026-05-07 09:44 37.76593 115.56076 31856 ft 471 kts
2026-05-07 09:44 37.79755 115.57049 31618 ft 462 kts 357°
2026-05-07 09:44 37.82894 115.57702 31446 ft 452 kts 354°
2026-05-07 09:45 37.85995 115.58067 31195 ft 444 kts 351°
2026-05-07 09:45 37.89061 115.58160 30940 ft 437 kts 347°
2026-05-07 09:45 37.91065 115.58080 30712 ft 435 kts 345°
2026-05-07 09:45 37.95104 115.57790 29997 ft 435 kts 345°
2026-05-07 09:46 37.97100 115.57630 29519 ft 435 kts 346°
2026-05-07 09:46 38.00125 115.57389 28800 ft 435 kts 346°
2026-05-07 09:46 38.03146 115.57152 28136 ft 435 kts 347°
2026-05-07 09:46 38.06148 115.56924 27677 ft 429 kts 347°
2026-05-07 09:47 38.09107 115.56722 27246 ft 424 kts 348°
2026-05-07 09:47 38.12041 115.56596 26817 ft 419 kts 349°
2026-05-07 09:47 38.14923 115.56423 26396 ft 412 kts 348°
2026-05-07 09:47 38.17780 115.56222 25908 ft 409 kts 348°
2026-05-07 09:48 38.20610 115.56016 25421 ft 406 kts 349°
2026-05-07 09:48 38.23425 115.55898 24975 ft 407 kts 354°
2026-05-07 09:48 38.26259 115.56281 24526 ft 412 kts
2026-05-07 09:48 38.29049 115.57198 24103 ft 417 kts 11°
2026-05-07 09:49 38.31748 115.58624 23676 ft 420 kts 17°
2026-05-07 09:49 38.34371 115.60243 23181 ft 418 kts 18°
2026-05-07 09:49 38.36958 115.61882 22724 ft 413 kts 19°
2026-05-07 09:49 38.39521 115.63512 22292 ft 409 kts 19°
2026-05-07 09:50 38.42051 115.65115 21884 ft 405 kts 19°
2026-05-07 09:50 38.44571 115.66702 21459 ft 402 kts 19°
2026-05-07 09:50 38.47064 115.68275 21032 ft 398 kts 20°
2026-05-07 09:50 38.49537 115.69835 20615 ft 395 kts 20°
2026-05-07 09:51 38.51988 115.71382 20209 ft 391 kts 20°
2026-05-07 09:51 38.54419 115.72917 19799 ft 388 kts 20°
2026-05-07 09:51 38.56799 115.74419 19396 ft 385 kts 20°
2026-05-07 09:51 38.59192 115.75932 18985 ft 383 kts 21°
2026-05-07 09:52 38.61574 115.77439 18587 ft 380 kts 21°
2026-05-07 09:52 38.63915 115.78982 18132 ft 378 kts 24°
2026-05-07 09:52 38.66162 115.80732 17685 ft 378 kts 28°
2026-05-07 09:52 38.68335 115.82725 17556 ft 390 kts 32°
2026-05-07 09:53 38.70460 115.84937 17582 ft 395 kts 34°
2026-05-07 09:53 38.72601 115.87236 17618 ft 396 kts 35°
2026-05-07 09:53 38.74709 115.89512 17631 ft 396 kts 35°
2026-05-07 09:53 38.76814 115.91786 17650 ft 396 kts 35°
2026-05-07 09:54 38.78920 115.94059 17685 ft 395 kts 35°
2026-05-07 09:54 38.81025 115.96334 17733 ft 395 kts 35°
2026-05-07 09:54 38.83128 115.98605 17754 ft 396 kts 35°
2026-05-07 09:54 38.85237 116.00881 17766 ft 396 kts 35°
2026-05-07 09:55 38.87345 116.03158 17777 ft 396 kts 35°
2026-05-07 09:55 38.89451 116.05435 17781 ft 396 kts 35°
2026-05-07 09:55 38.91562 116.07720 17773 ft 396 kts 35°
2026-05-07 09:55 38.93666 116.09998 17764 ft 396 kts 35°
2026-05-07 09:56 38.95776 116.12285 17756 ft 396 kts 35°
2026-05-07 09:56 38.97878 116.14566 17638 ft 396 kts 35°
2026-05-07 09:56 38.99987 116.16849 17060 ft 394 kts 34°
2026-05-07 09:56 39.02279 116.18648 16526 ft 381 kts 18°
2026-05-07 09:57 39.04797 116.19453 16068 ft 369 kts
2026-05-07 09:57 39.07327 116.19358 15640 ft 361 kts 352°
2026-05-07 09:57 39.09805 116.18989 15209 ft 356 kts 352°
2026-05-07 09:57 39.12255 116.18610 14784 ft 353 kts 352°
2026-05-07 09:58 39.14678 116.18235 14359 ft 349 kts 352°
2026-05-07 09:58 39.17054 116.17871 13924 ft 350 kts 352°
2026-05-07 09:58 39.19520 116.17494 13383 ft 352 kts 352°
2026-05-07 09:58 39.21951 116.17125 12838 ft 351 kts 352°
2026-05-07 09:59 39.24369 116.16758 12310 ft 349 kts 352°
2026-05-07 09:59 39.26743 116.16399 11809 ft 347 kts 352°
2026-05-07 09:59 39.29131 116.16039 11298 ft 345 kts 352°
2026-05-07 09:59 39.31507 116.15681 10800 ft 343 kts 352°
2026-05-07 10:00 39.33870 116.15324 10306 ft 341 kts 352°
2026-05-07 10:00 39.36216 116.14967 9803 ft 338 kts 352°
2026-05-07 10:00 39.38540 116.14616 9264 ft 335 kts 352°
2026-05-07 10:00 39.40849 116.14336 8577 ft 327 kts
2026-05-07 10:01 39.42982 116.15076 8027 ft 316 kts 28°
2026-05-07 10:01 39.44588 116.16936 7522 ft 308 kts 52°
2026-05-07 10:01 39.45443 116.19442 7028 ft 304 kts 76°
2026-05-07 10:01 39.45725 116.22125 6553 ft 297 kts 81°
2026-05-07 10:02 39.45949 116.24750 6030 ft 289 kts 81°
2026-05-07 10:02 39.46171 116.27307 5527 ft 283 kts 81°
2026-05-07 10:02 39.46398 116.29806 5100 ft 274 kts 81°
2026-05-07 10:02 39.46615 116.32173 4960 ft 256 kts 81°
2026-05-07 10:03 39.46823 116.34399 4831 ft 244 kts 80°
2026-05-07 10:03 39.47028 116.36578 4692 ft 243 kts 80°
2026-05-07 10:03 39.47236 116.38747 4576 ft 242 kts 80°
2026-05-07 10:03 39.47443 116.40913 4440 ft 242 kts 80°
2026-05-07 10:04 39.47651 116.43077 4311 ft 241 kts 78°
2026-05-07 10:04 39.48211 116.45078 4172 ft 235 kts 50°
2026-05-07 10:04 39.49406 116.46445 4053 ft 229 kts 26°
2026-05-07 10:04 39.50807 116.47411 3971 ft 228 kts 25°
2026-05-07 10:05 39.52215 116.48352 3839 ft 227 kts 25°
2026-05-07 10:05 39.53610 116.49292 3722 ft 226 kts 25°
2026-05-07 10:05 39.55002 116.50241 3584 ft 226 kts 25°
2026-05-07 10:05 39.56389 116.51195 3467 ft 226 kts 25°
2026-05-07 10:06 39.57777 116.52155 3343 ft 226 kts 25°
2026-05-07 10:06 39.59169 116.53119 3214 ft 227 kts 25°
2026-05-07 10:06 39.60555 116.54082 3093 ft 226 kts 25°
2026-05-07 10:06 39.61940 116.55043 2947 ft 227 kts 25°
2026-05-07 10:07 39.63314 116.55999 2834 ft 226 kts 25°
2026-05-07 10:07 39.64738 116.56987 2705 ft 226 kts 26°
2026-05-07 10:07 39.66120 116.57948 2575 ft 225 kts 26°
2026-05-07 10:07 39.67495 116.58905 2495 ft 224 kts 26°
2026-05-07 10:08 39.68850 116.59851 2400 ft 225 kts 26°
2026-05-07 10:08 39.70249 116.60831 2306 ft 225 kts 26°
2026-05-07 10:08 39.71630 116.61797 2214 ft 225 kts 26°
2026-05-07 10:08 39.73005 116.62760 2168 ft 224 kts 26°
2026-05-07 10:09 39.74336 116.63688 2067 ft 217 kts 26°
2026-05-07 10:09 39.75633 116.64599 2001 ft 206 kts 26°
2026-05-07 10:09 39.76910 116.65348 2006 ft 202 kts 17°
2026-05-07 10:09 39.78292 116.65761 1986 ft 201 kts
2026-05-07 10:10 39.79668 116.65824 1992 ft 201 kts 357°
2026-05-07 10:10 39.81048 116.65691 1979 ft 200 kts 353°
2026-05-07 10:10 39.82460 116.65486 1977 ft 199 kts 353°
2026-05-07 10:10 39.83755 116.65283 1978 ft 183 kts 353°
2026-05-07 10:11 39.84978 116.65090 1962 ft 178 kts 352°
2026-05-07 10:11 39.86187 116.64897 1975 ft 178 kts 352°
2026-05-07 10:11 39.87420 116.64698 1978 ft 180 kts 352°
2026-05-07 10:11 39.88655 116.64500 1982 ft 180 kts 352°
2026-05-07 10:12 39.89863 116.64307 1979 ft 179 kts 352°
2026-05-07 10:12 39.91070 116.64114 1975 ft 177 kts 352°
2026-05-07 10:12 39.92198 116.63936 1933 ft 153 kts 352°
2026-05-07 10:12 39.93233 116.63773 1942 ft 148 kts 352°
2026-05-07 10:13 39.94256 116.63608 1966 ft 147 kts 353°
2026-05-07 10:13 39.95273 116.63447 1972 ft 148 kts 353°
2026-05-07 10:13 39.96298 116.63286 1963 ft 149 kts 352°
2026-05-07 10:13 39.97325 116.63123 1783 ft 148 kts 352°
2026-05-07 10:14 39.98346 116.62961 1583 ft 147 kts 352°
2026-05-07 10:14 39.99363 116.62799 1380 ft 147 kts 352°
2026-05-07 10:14 40.00371 116.62639 1199 ft 145 kts 352°
2026-05-07 10:14 40.01371 116.62479 1007 ft 145 kts 353°
2026-05-07 10:15 40.02365 116.62324 816 ft 143 kts 352°
2026-05-07 10:15 40.03358 116.62169 623 ft 144 kts 352°
2026-05-07 10:15 40.04360 116.62022 394 ft 143 kts 350°
2026-05-07 10:15 40.05379 116.61853 218 ft 141 kts 351°
2026-05-07 10:16 40.06394 116.61689 124 ft 138 kts 353°
2026-05-07 10:16 40.07128 116.61567 127 ft 73 kts 352°
2026-05-07 10:16 40.07409 116.61521 124 ft 9 kts 353°
2026-05-07 10:16 40.07416 116.61519 128 ft 2 kts 353°
2026-05-07 10:17 40.07443 116.61516 125 ft 5 kts 354°
2026-05-07 10:17 40.07494 116.61513 129 ft 9 kts 358°
2026-05-07 10:17 40.07567 116.61505 129 ft 12 kts 353°
2026-05-07 10:17 40.07662 116.61489 131 ft 15 kts 351°
2026-05-07 10:18 40.07777 116.61451 129 ft 19 kts 339°
2026-05-07 10:18 40.07899 116.61366 131 ft 21 kts 324°
2026-05-07 10:18 40.07966 116.61286 132 ft 11 kts 287°
2026-05-07 10:18 40.07922 116.61215 132 ft 12 kts 166°
2026-05-07 10:19 40.07894 116.61221 130 ft 5 kts 179°
2026-05-07 10:19 40.07846 116.61224 130 ft 9 kts 173°
2026-05-07 10:19 40.07774 116.61230 129 ft 7 kts 194°
2026-05-07 10:19 40.07731 116.61181 128 ft 10 kts 250°
2026-05-07 10:20 40.07724 116.61116 128 ft 4 kts 265°
2026-05-07 10:20 40.07725 116.61063 132 ft 7 kts 285°
2026-05-07 10:20 40.07762 116.61003 127 ft 10 kts 323°
2026-05-07 10:20 40.07782 116.60982 125 ft 0 kts 323°